Tracking 29493 objects as of 8-Sep-2024
HD Live streaming from Space Station
objects crossing your sky now

OBJECT A

Track OBJECT A now!
10-day predictions


NORAD ID: 53444
Int'l Code: 2022-098A
Perigee: 502.5 km
Apogee: 513.9 km
Inclination: 97.5 °
Period: 94.6 minutes
Semi major axis: 6879 km
RCS: Unknown
Launch date: August 10, 2022
Source: People's Republic of China (PRC)
Launch site: Taiyaun Space Center, China (TSC)
Your satellite tracking list
Your tracking list is empty




NASA's NSSDC Master Catalog

Two Line Element Set (TLE):
1 53444U 22098A   24252.15531175  .00036306  00000-0  16047-2 0  9992
2 53444  97.5276 351.6374 0008352 133.2425 226.9509 15.21585257115107
Source of the keplerian elements: AFSPC